Regional Weather Roundup
Issued by NWS Charleston, SC

Current Version | Previous Version | Text Only | Print | Product List | Glossary Off
Versions: 1 2 3 4 5 6 7 8 9 10 11 12 13 14 15 16 17 18 19 20 21 22 23 24 25 26 27 28 29 30 31 32 33 34 35 36 37 38 39 40 41 42 43 44 45 46 47 48 49 50
000 ASUS42 KCHS 052213 RWRCHS REGIONAL WEATHER ROUNDUP NATIONAL WEATHER SERVICE CHARLESTON SC 600 PM EDT THU MAY 05 2016 NOTE: "FAIR" INDICATES FEW OR NO CLOUDS BELOW 12,000 FEET WITH NO SIGNIFICANT WEATHER AND/OR OBSTRUCTIONS TO VISIBILITY. NOT ALL STATIONS ARE QUALITY CONTROLLED. USE DATA WITH CAUTION... ESPECIALLY DEWPOINT OBSERVATIONS. SCZ027-030-031-034>040-042>050-052300- ...SOUTHEAST SOUTH CAROLINA... CITY SKY/WX TMP DP RH WIND PRES REMARKS N CHARLESTON MOSUNNY 66 41 40 NW17 29.63R WATERFRONT PRK N/A 70 40 33 W9 29.60R MOUNT PLEASANT FAIR 70 43 37 NW16G23 29.63R JOHNS ISLAND FAIR 70 39 32 W20G25 29.63R PINOPOLIS N/A 68 46 45 NW16 29.56R MONCKS CORNER FAIR 64 32 29 NW8G16 29.64R SUMMERVILLE FAIR 68 45 42 NW7 29.65R BEAUFORT MCAS MOSUNNY 70 37 29 NW16G33 29.65R BEAUFORT ARPT FAIR 70 36 28 W12G32 29.65R HILTON HEAD IS MOSUNNY 70 39 32 W13G28 29.67R WALTERBORO MOCLDY 68 36 30 NW12G20 29.66R ALLENDALE FAIR 68 36 30 VRB7G18 29.67R ...SOUTHERN MIDLANDS AND PEE DEE... CITY SKY/WX TMP DP RH WIND PRES REMARKS GEORGETOWN DRIZZLE 61 52 72 N6 29.64R KINGSTREE CLOUDY 55 46 71 CALM 29.65R ORANGEBURG PTSUNNY 63 40 42 NW12G18 29.67R BARNWELL DRIZZLE 59 46 63 N12G25 29.70R AIKEN LGT RAIN 61 37 41 NW8 29.71S MANNING FAIR 66 36 32 W15G28 29.64R COLUMBIA PTSUNNY 63 42 46 VRB5 29.65R SUMTER MOSUNNY 67 36 31 N15G26 29.61R FLORENCE TSTM 54 46 74 W12G33 29.67R MYRTLE BEACH MOSUNNY 63 45 51 NW8 29.63R N MYRTLE BEACH CLOUDY 59 53 80 VRB3 29.61R $$ GAZ063-065-086>088-099>101-113>116-118-119-134>141-150-052300- ...SOUTHEAST GEORGIA... CITY SKY/WX TMP DP RH WIND PRES REMARKS SAVANNAH ARPT MOSUNNY 71 35 26 NW15G29 29.67R HUNTER AAF MOSUNNY 71 39 31 NW17G31 29.65R FORT STEWART MOSUNNY 69 37 30 W20G28 29.68R STATESBORO SUNNY 72 42 34 NW21G28 29.69S SYLVANIA PTCLDY 70 41 34 NW22 29.69R CLAXTON FAIR 70 42 36 W20G28 29.70S ...CSRA...CENTRAL AND FAR SOUTHEAST GEORGIA... CITY SKY/WX TMP DP RH WIND PRES REMARKS THOMSON CLOUDY 55 47 73 W17G35 29.80R AUGUSTA-BUSH LGT RAIN 57 45 64 W29G39 29.71R AUGUSTA-DANIEL PTSUNNY 61 40 45 W20G33 29.72R SWAINSBORO MOCLDY 68 36 30 NW18G25 29.71S VIDALIA SUNNY 70 37 30 W15G25 29.72S EASTMAN MOCLDY 70 38 31 NW13G22 29.76S HAZLEHURST MOCLDY 71 37 29 NW9G18 29.73R ALMA PTSUNNY 70 37 29 NW20G26 29.73R WAYCROSS PTSUNNY 70 39 32 NW15G25 29.73R JESUP FAIR 73 41 31 NW18G25 29.72R BAXLEY PTSUNNY 72 36 26 NW14G20 29.73R BRUNSWICK MOSUNNY 77 39 25 W13G20 29.71R SAINT SIMONS MOSUNNY 72 36 26 W16G26 29.69S $$ SCZ027-028-034-036>038-045-046-048>050-GAZ119-141-052300- ...LAKE AND SUPPLEMENTAL COASTAL OBSERVATIONS... STATION/POSITION TIME TEMP WIND PRES WAVE SWELL AIR SEA DIR/SP/G HT/PER HT/PER/DIR (UTC) (F) (DEG/KT/KT) (MB) (FT/S) (FT/S/D) WINYAH BAY NOT AVBL LAKE MURRAY 2100 60 280/ 15/ 25 1003.7R ACE BASIN NERRS NOT AVBL FORT PULASKI 2100 68 74 290/ 22/ 27 1004.5R SAPELO ISLAND 2100 72 300/ 17 1005.0S $$ ANZ835-935-AMZ111-154-330-350-352-354-370-450-454-472-052300- ...C-MAN AND BUOY OBSERVATIONS... STATION/POSITION TIME TEMP WIND PRES WAVE SWELL AIR SEA DIR/SP/G HT/PER HT/PER/DIR (UTC) (F) (DEG/KT/KT) (MB) (FT/S) (FT/S/D) BUOY 41004 2150 69 74 280/ 19/ 25 1002.2R 6/ 6 BUOY 41008 NOT AVBL FOLLY BEACH CMAN 2100 68 290/ 12/ 17 1003.1R CAPERS NEARSHORE 2108 68 70 310/ 17/ 25 1001.8R FRIPP NEARSHORE 2108 68 69 320/ 19/ 27 1002.9R STATION/POSITION TIME TEMP WIND PRES WAVE SWELL AIR SEA DIR/SP/G HT/PER HT/PER/DIR (UTC) (F) (DEG/KT/KT) (MB) (FT/S) (FT/S/D) 5E ST. MARYS GA 2121 71 N/A 3/ 4 FRYING PAN BUOY 2100 67 72 290/ 25/ 33 1000.1R BUOY 41025 2150 57 77 10/ 17/ 21 999.0R 6/ 7 2/ 70/ 8 CAPE LOOKOUT NC 2100 61 60/ 13/ 15 998.9R BUOY 41002 2150 73 74 260/ 25/ 29 1000.8F 8/ 8 2/250/13 BUOY 41010 2120 73 78 290/ 17/ 23 1006.3R ST AUGUSTINE FL 2200 75 71 310/ 12/ 16 1006.3R $$

USA.gov is the U.S. government's official web portal to all federal, state and local government web resources and services.